Location: Lanoux
(43.1180°N, 1.4255°E)
Time: 00:25:19
(UTC+00:00)

ARIANE 5 R/B - Pass Details

Date: 13 December 2025
Orbit: 747 x 792 km, 98.8° (Epoch: 17 January)

Event Time Altitude Azimuth Distance (km) Brightness Sun altitude
Rises 17:43:43 0° 172° (S) 3,204 5.9 -14.7°
Reaches altitude 10° 17:46:00 10° 175° (S) 2,290 5.1 -15.1°
Maximum altitude 17:51:01 67° 258° (WSW) 835 2.9 -16.0°
Drops below altitude 10° 17:56:09 10° 341° (NNW) 2,336 5.0 -16.9°
Sets 17:58:30 0° 344° (NNW) 3,274 5.8 -17.3°
